{"data":{"norad_id":48315,"epoch":"2026-09-20T00:48:04.852800Z","epoch_age_seconds":74047,"freshness":"FRESH","line1":"1 48315U 21036AR  26263.03338950  .00000485  00000+0  27401-4 0  9997","line2":"2 48315  53.1590 274.4908 0001053  99.9949 260.1171 15.31694181297834","mean_motion":15.31694181,"eccentricity":0.0001053,"inclination_deg":53.159,"raan_deg":274.4908,"arg_perigee_deg":99.9949,"mean_anomaly_deg":260.1171,"bstar":2.7401e-5,"rev_number":29783,"period_min":94.013545122948,"perigee_km":470.03615284262,"apogee_km":471.47852999092,"semimajor_km":6848.8943414168,"source":"CELESTRAK","updated_at":"2026-09-20T09:00:38.934723Z"}}